Change the Weather History Date:

Friday, December 7, 2012

  Actual Average Record
Temperature  
Mean Temperature 42 °F 39 °F  
Max Temperature 45 °F 45 °F 57 °F (1990)
Min Temperature 39 °F 33 °F 8 °F (1980)
Degree Days  
Heating Degree Days 23 26  
Month to date heating degree days 180  
Cooling Degree Days 0 0  
Month to date cooling degree days 0  
Year to date cooling degree days 42  
Moisture  
Dew Point 37 °F    
Average Humidity 81    
Maximum Humidity 89    
Minimum Humidity 67    
Precipitation  
Precipitation 0.10 in 0.15 in 0.68 in (1976)
Month to date precipitation 1.13  
Year to date precipitation 32.74  
Sea Level Pressure  
Sea Level Pressure 30.01 in    
Wind  
Wind Speed 10 mph (South)    
Max Wind Speed 20 mph    
Max Gust Speed 30 mph    
Visibility 10 miles    
Events Rain    
T = Trace of Precipitation, MM = Missing Value Source: NWS Daily Summary

Daily Weather History Graph

Daily Weather History Graph

Search for Another Location

Airport or City:

Trip Planner

Search our weather history database for the weather conditions in past years. The results will help you decide how hot, cold, wet, or windy it might be!

Date:

Astronomy

Dec. 07, 2012 Rise Set
Actual Time 7:49 AM PST 4:13 PM PST
Civil Twilight 7:13 AM PST 4:50 PM PST
Nautical Twilight 6:33 AM PST 5:30 PM PST
Astronomical Twilight 5:54 AM PST 6:08 PM PST
Moon 12:46 AM PST (12/7) 12:39 PM PST (12/7)
Length of Visible Light 9h 37m
Length of Day
8h 24m
Last Quarter, 37% of the Moon is Illuminated
Dec 7
Last Quarter
Dec 13
New
Dec 19
First Quarter
Dec 28
Full
Jan 4
Last Quarter

Hourly Weather History & Observations

Time (PST) Temp. Windchill Dew Point Humidity Pressure Visibility Wind Dir Wind Speed Gust Speed Precip Events Conditions
12:08 AM 42.8 °F 37.5 °F 39.2 °F 87% 30.03 in 10.0 mi SSE 9.2 mph - 0.00 in Rain Light Rain
12:51 AM 42.8 °F 36.6 °F 37.4 °F 81% 30.01 in 10.0 mi SE 11.5 mph - 0.00 in Rain Light Rain
12:53 AM 43.0 °F 36.4 °F 37.9 °F 82% 30.03 in 10.0 mi SSE 12.7 mph - 0.00 in Rain Light Rain
1:53 AM 44.1 °F 37.4 °F 37.9 °F 79% 30.02 in 10.0 mi South 13.8 mph 26.5 mph 0.00 in Rain Light Rain
2:03 AM 44.6 °F 36.6 °F 39.2 °F 81% 29.99 in 7.0 mi SSE 19.6 mph 29.9 mph 0.01 in Rain Light Rain
2:31 AM 42.8 °F 35.4 °F 39.2 °F 87% 29.98 in 10.0 mi SSE 15.0 mph 23.0 mph 0.01 in Rain Light Rain
2:53 AM 44.1 °F 36.5 °F 39.0 °F 82% 30.01 in 10.0 mi SSE 17.3 mph 25.3 mph 0.01 in   Overcast
3:53 AM 44.1 °F 38.6 °F 39.0 °F 82% 30.00 in 10.0 mi SSE 10.4 mph 23.0 mph 0.00 in Rain Light Rain
4:34 AM 44.6 °F 39.2 °F 39.2 °F 81% 29.96 in 10.0 mi South 10.4 mph - 0.00 in   Overcast
4:53 AM 44.1 °F 39.0 °F 39.9 °F 85% 29.98 in 10.0 mi South 9.2 mph - 0.00 in Rain Light Rain
5:53 AM 44.1 °F 37.1 °F 39.9 °F 85% 29.96 in 10.0 mi SSE 15.0 mph 21.9 mph 0.00 in   Overcast
6:31 AM 44.6 °F 38.4 °F 39.2 °F 81% 29.93 in 10.0 mi South 12.7 mph 23.0 mph 0.00 in Rain Light Rain
6:53 AM 43.0 °F 36.4 °F 39.9 °F 89% 29.95 in 10.0 mi SSE 12.7 mph - 0.00 in Rain Light Rain
7:02 AM 42.8 °F 35.4 °F 39.2 °F 87% 29.92 in 9.0 mi South 15.0 mph 23.0 mph 0.00 in Rain Light Rain
7:09 AM 42.8 °F 36.6 °F 39.2 °F 87% 29.93 in 10.0 mi SSE 11.5 mph 23.0 mph 0.00 in Rain Light Rain
7:40 AM 42.8 °F 35.4 °F 39.2 °F 87% 29.92 in 10.0 mi SSE 15.0 mph 20.7 mph 0.00 in Rain Light Rain
7:53 AM 43.0 °F 36.8 °F 39.0 °F 86% 29.94 in 10.0 mi SSE 11.5 mph - 0.00 in Rain Light Rain
8:23 AM 44.6 °F 42.2 °F 39.2 °F 81% 29.91 in 7.0 mi Variable 4.6 mph - 0.01 in Rain Light Rain
8:53 AM 43.0 °F 39.5 °F 39.0 °F 86% 29.94 in 10.0 mi SSW 5.8 mph - 0.05 in Rain Light Rain
9:44 AM 44.6 °F 40.2 °F 39.2 °F 81% 29.91 in 10.0 mi SSW 8.1 mph - N/A   Scattered Clouds
9:53 AM 45.0 °F 41.2 °F 39.9 °F 82% 29.95 in 10.0 mi SSW 6.9 mph - N/A   Scattered Clouds
10:53 AM 41.0 °F 39.0 °F 37.0 °F 86% 29.96 in 10.0 mi SSE 3.5 mph - N/A   Mostly Cloudy
11:53 AM 44.1 °F - 37.9 °F 79% 29.95 in 10.0 mi Calm Calm - N/A   Mostly Cloudy
12:53 PM 45.0 °F 39.7 °F 36.0 °F 71% 29.97 in 10.0 mi WSW 10.4 mph 18.4 mph N/A   Overcast
1:08 PM 41.0 °F 33.9 °F 35.6 °F 81% 29.96 in 2.5 mi WNW 12.7 mph 27.6 mph 0.04 in Rain Heavy Rain
1:20 PM 39.2 °F 33.0 °F 35.6 °F 87% 29.96 in 10.0 mi NW 9.2 mph - 0.04 in Rain Light Rain
1:53 PM 41.0 °F 37.1 °F 36.0 °F 82% 30.01 in 10.0 mi Variable 5.8 mph - 0.04 in   Mostly Cloudy
2:53 PM 43.0 °F 39.5 °F 35.1 °F 74% 30.01 in 10.0 mi Variable 5.8 mph - N/A   Scattered Clouds
3:53 PM 42.1 °F 37.7 °F 33.1 °F 70% 30.03 in 10.0 mi Variable 6.9 mph - N/A   Partly Cloudy
4:53 PM 42.1 °F 40.2 °F 32.0 °F 67% 30.05 in 10.0 mi Variable 3.5 mph - N/A   Clear
5:53 PM 42.1 °F - 32.0 °F 67% 30.07 in 10.0 mi Calm Calm - N/A   Partly Cloudy
6:53 PM 42.1 °F 39.2 °F 34.0 °F 73% 30.08 in 10.0 mi Variable 4.6 mph - N/A   Overcast
7:53 PM 41.0 °F 39.0 °F 34.0 °F 76% 30.09 in 10.0 mi SSE 3.5 mph - N/A   Partly Cloudy
8:53 PM 39.9 °F - 34.0 °F 79% 30.11 in 10.0 mi Calm Calm - N/A   Mostly Cloudy
9:36 PM 41.0 °F - 33.8 °F 76% 30.09 in 10.0 mi Calm Calm - N/A   Overcast
9:43 PM 41.0 °F 39.0 °F 33.8 °F 76% 30.09 in 10.0 mi WSW 3.5 mph - N/A   Overcast
9:53 PM 41.0 °F - 34.0 °F 76% 30.12 in 10.0 mi Calm Calm - N/A   Mostly Cloudy
10:01 PM 41.0 °F - 33.8 °F 76% 30.09 in 10.0 mi Calm Calm - N/A   Mostly Cloudy
10:53 PM 39.9 °F - 34.0 °F 79% 30.14 in 10.0 mi Calm Calm - N/A   Mostly Cloudy
11:06 PM 39.2 °F - 33.8 °F 81% 30.11 in 10.0 mi Calm Calm - N/A   Mostly Cloudy
11:53 PM 39.0 °F - 35.1 °F 86% 30.14 in 10.0 mi Calm Calm - N/A   Overcast